Weather Roundup
Issued by NWS Chicago, IL

Home | Current Version | Previous Version | Text Only | Print | Product List | Glossary On
Versions: 1 2 3 4 5 6 7 8 9 10 11 12 13 14 15 16 17 18 19 20 21 22 23 24 25 26 27 28 29 30 31 32 33 34 35 36 37 38 39 40 41 42 43 44 45 46 47 48 49 50
703
NZUS59 KLOT 080808
HRRLOT

CHICAGO AREA WEATHER ROUNDUP
NATIONAL WEATHER SERVICE CHICAGO/ROMEOVILLE IL
200 AM CST MON FEB 08 2016

NOTE: "FAIR" INDICATES FEW OR NO CLOUDS BELOW 12,000 FEET WITH NO
SIGNIFICANT WEATHER AND/OR OBSTRUCTIONS TO VISIBILITY.

* THESE STATIONS ARE NOT UNDER NWS QUALITY CONTROL. THEY ALSO MAY NOT
  REPORT WEATHER SUCH AS PRECIPITATION OR FOG.

ILZ005-006-012>014-019>023-080900-
NORTHEAST ILLINOIS

CITY           SKY/WX    TMP DP  RH WIND       PRES   REMARKS
OHARE          PTCLDY    31  26  82 SW9       29.64F WCI  23
MIDWAY         CLEAR     33  25  72 SW9       29.65F WCI  25
AURORA         PTCLDY    31  27  85 W8        29.66F WCI  23
LANSING*       CLEAR     27  24  89 S3        29.67F
WAUKEGAN       CLEAR     29  27  92 SW5       29.62F WCI  24
DUPAGE AIRPORT CLEAR     29  24  82 SW8       29.64F WCI  21
WHEELING       PTCLDY    31  26  82 SW6       29.65F WCI  25
KANKAKEE*      CLEAR     33  27  80 W6        29.69S WCI  27
MORRIS*        CLEAR     31  27  85 W6        29.64F WCI  25
LEWIS AIRPORT* CLEAR     31  26  84 W10       29.66F WCI  22
$$

WIZ051-052-058>065-066-070>072-080900-
SOUTHEAST WISCONSIN

CITY           SKY/WX    TMP DP  RH WIND       PRES   REMARKS
MILWAUKEE      PTCLDY    30  26  85 SW8       29.60F WCI  22
KENOSHA*       CLEAR     30  26  85 SW10      29.61F WCI  21
RACINE*        CLEAR     30  25  81 SW7       29.62F WCI  23
BURLINGTON     MOCLDY    28  26  89 SW5       29.61S WCI  23
WAUKESHA       CLOUDY    30  28  93 SW7       29.60F WCI  23
$$

INZ001>003-010>013-019-020-080900-
NORTHWEST INDIANA

CITY           SKY/WX    TMP DP  RH WIND       PRES   REMARKS
GARY*          CLEAR     32  27  82 CALM      29.67F
MICHIGAN CITY* NOT AVBL
RENSSELAER*    NOT AVBL
VALPARAISO     CLEAR     30  25  81 SW5       29.67F WCI  25
$$

LMZ740>746-080900-
SOUTHERN LAKE MICHIGAN

STATION/POSITION TIME  SKY/WX   TEMP WIND        PRES    VSBY
                                AIR  DIR/SP/G
                 (UTC)          (F)  (DEG/KT/KT) (MB)    (MI)
HARRISON CRIB    0700            36  250/ 10/ 11   N/A
BURNHAM HARBOR   0800            34  270/  7       N/A
CALUMET HARBOR   0700            33  220/  3/  6 1004.3F
BURNS HARBOR     0700            35  230/  8/ 11 1005.8F
MICHIGAN CITY    0700            35  210/ 11/ 11   N/A
$$

ABBREVIATIONS USED IN REMARKS
   TC - TEMPERATURE IN CELSIUS
  WCI - WIND CHILL INDEX
   HX - HEAT INDEX
  VSB - VISIBILITY
$$




USA.gov is the U.S. government's official web portal to all federal, state and local government web resources and services.